Location: Glenbow
(51.1592°N, 114.3828°W)
Time: 20:28:09
(UTC+00:00)

Envisat - Pass Details

Date: 06 December 2021
Orbit: 764 x 766 km, 98.2° (Epoch: 26 January)

Event Time Altitude Azimuth Distance (km) Brightness Sun altitude
Rises 10:58:06 0° 32° (NNE) 3,246 6.8 -40.7°
Reaches altitude 10° 11:02:41 10° 70° (ENE) 2,311 6.1 -40.0°
Maximum altitude 11:03:47 11° 83° (E) 2,265 6.1 -39.9°
Drops below altitude 10° 11:04:52 10° 95° (E) 2,307 6.1 -39.7°
Sets 11:09:25 0° 134° (SE) 3,224 6.6 -39.0°
